Regional Weather Roundup
Issued by NWS

Home | Current Version | Previous Version | Text Only | Print | Product List | Glossary Off
Versions: 1 2 3 4 5 6 7 8 9 10 11 12 13 14 15 16 17 18 19 20 21 22 23 24 25 26 27 28 29 30 31 32 33 34 35 36 37 38 39 40 41 42 43 44 45 46 47 48 49 50

000
ASUS43 KTOP 281508
RWRKS

WEATHER ROUNDUP FOR KANSAS
NATIONAL WEATHER SERVICE GOODLAND KS
1000 AM CDT SAT MAY 28 2016

NOTE:  "FAIR" INDICATES FEW OR NO CLOUDS BELOW 12,000 FEET WITH NO
SIGNIFICANT WEATHER AND/OR OBSTRUCTIONS TO VISIBILITY.

KSZ001>006-013>018-027>032-041>047-281600-
NORTHWEST KANSAS

CITY           SKY/WX    TMP DP  RH WIND       PRES   REMARKS
GOODLAND       SUNNY     60  50  69 W5        29.98R
HAYS           SUNNY     63  52  67 NW8       29.92R
HILL CITY      SUNNY     65  55  70 NW8       29.93R
RUSSELL        MOSUNNY   63  57  81 NW13      29.90R
$$

KSZ061>065-074>080-084>089-281600-
SOUTHWEST KANSAS

CITY           SKY/WX    TMP DP  RH WIND       PRES   REMARKS
DODGE CITY     SUNNY     63  52  67 W10       29.96R
ELKHART          N/A     64  48  56 N3          N/A
GARDEN CITY    SUNNY     64  50  60 NW12      29.98R
GREAT BEND     SUNNY     63  52  67 W10       29.93R
LIBERAL        SUNNY     64  48  55 NW9       30.01S
PRATT          SUNNY     63  53  70 NW10      29.94R
$$

KSZ066>073-081>083-090>101-281600-
SOUTHEAST KANSAS

CITY           SKY/WX    TMP DP  RH WIND       PRES   REMARKS
CHANUTE        PTSUNNY   68  59  73 SW14      29.88R
COFFEYVILLE    MOSUNNY   72  62  71 SW17      29.89R
HUTCHINSON     SUNNY     68  58  70 W9        29.90R
MEDICINE LODGE   N/A     68  53  58 W12       29.93R
NEWTON         MOSUNNY   64  55  72 W12       29.92R
PARSONS        PTSUNNY   70  62  76 SW13      29.90R
WICHITA INTL   MOSUNNY   68  58  70 W12       29.90R
WICHITA JABRA  SUNNY     67  58  72 W13       29.89R
WICHITA MCCONL SUNNY     67  58  73 W12       29.90R
WINFIELD       SUNNY     68  59  73 W10       29.92R
$$

KSZ007>012-019>026-033>040-048>060-102>105-281600-
NORTHEAST KANSAS

CITY           SKY/WX    TMP DP  RH WIND       PRES   REMARKS
CONCORDIA      PTSUNNY   63  56  78 W9        29.87R
EMPORIA        PTSUNNY   68  59  73 W12G20    29.86R
LAWRENCE       PTSUNNY   66  60  81 SW17G23   29.83R
MANHATTAN      PTSUNNY   66  58  75 W8        29.85R
MARYSVILLE     LGT RAIN  61  59  94 W7        29.84R
OLATHE IND     CLOUDY    67  60  78 SW17      29.84R
OLATHE EXE     CLOUDY    66  60  81 SW13G20   29.83R
SALINA         PTSUNNY   65  58  78 W10       29.89R
TOPEKA BILLARD CLOUDY    67  60  78 W7        29.83R
TOPEKA FORBES  PTSUNNY   68  61  78 SW13      29.83R
$$




USA.gov is the U.S. government's official web portal to all federal, state and local government web resources and services.